Location: Alfortville
(48.8058°N, 2.4204°E)
Time: 04:05:21
(UTC+00:00)

USA 229 DEB - Pass Details

Date: 29 May 2022
Orbit: 934 x 1278 km, 63.4° (Epoch: 24 May)

Event Time Altitude Azimuth Distance (km) Brightness Sun altitude
Rises 20:09:02 0° 303° (WNW) 3,814 9.1 -4.3°
Reaches altitude 10° 20:12:06 10° 316° (NW) 2,916 7.9 -4.7°
Maximum altitude 20:17:50 26° 11° (NNE) 2,060 5.6 -5.4°
Drops below altitude 10° 20:23:54 10° 66° (ENE) 3,121 5.9 -6.1°
Sets 20:27:19 0° 79° (E) 4,135 6.4 -6.5°
